Regional Weather Roundup
Issued by NWS Sterling, VA

Home | Current Version | Previous Version | Graphics & Text | Print | Product List | Glossary On
Versions: 1 2 3 4 5 6 7 8 9 10 11 12 13 14 15 16 17 18 19 20 21 22 23 24 25 26 27
000
ASUS41 KLWX 301410
RWRLWX

REGIONAL WEATHER ROUNDUP
NATIONAL WEATHER SERVICE BALTIMORE MD/WASHINGTON DC
1000 AM EDT SAT APR 30 2016

Note: "FAIR" indicates few or no clouds below 12,000 feet
with no significant weather and/or obstructions to visibility.
 TC=TEMPERATURE CELSIUS

 * =Non NWS site. Station does not report precipitation (e.g. rain,
    snow, etc.), thunder, or fog.

DCZ001-MDZ009-015-VAZ040>042-051-053>054-301500-
WASHINGTON METRO

CITY           SKY/WX    TMP DP  RH WIND       PRES   REMARKS
WASHINGTON NAT CLOUDY    53  47  79 E7        30.21S
DULLES         CLOUDY    52  48  86 E7        30.20R FOG
ANDREWS AFB    CLOUDY    51  46  85 E5        30.19R
FT BELVOIR     CLOUDY    53  46  77 VRB3      30.20S
QUANTICO       CLOUDY    55  48  77 NE10      30.21S
COLLEGE PARK*  CLOUDY    52  45  76 NE3       30.20S
LEESBURG*      CLOUDY    54  54 100 CALM      30.21R FOG
MANASSAS*      CLOUDY    54  52  94 SE5       30.20R
GAITHERSBURG*  CLOUDY    48  45  87 NE6       30.24S

$$

MDZ006>007-011-014-301500-
BALTIMORE METRO

CITY           SKY/WX    TMP DP  RH WIND       PRES   REMARKS
BWI AIRPORT    CLOUDY    51  45  79 VRB3      30.20S
MD SCIENCE CTR   N/A     53  44  71 MISG      30.21S
MARTIN STATE   CLOUDY    52  48  87 N3        30.23R
ANNAPOLIS      CLOUDY    52  46  80 MISG      30.21R
FORT MEADE*    CLOUDY    50  45  81 E3        30.23S

$$

MDZ012-015-019>023-301500-
MARYLAND EASTERN SHORE

CITY           SKY/WX    TMP DP  RH WIND       PRES   REMARKS
OCEAN CITY     CLOUDY    52  47  83 NE8       30.19R
SALISBURY      CLOUDY    51  48  89 NE8       30.19R
CAMBRIDGE*     CLOUDY    50  46  87 NE6       30.20R
EASTON*        CLOUDY   N/A N/A N/A NE3       30.24R

$$

MDZ017>025-301500-
SOUTHERN MARYLAND

CITY           SKY/WX    TMP DP  RH WIND       PRES   REMARKS
PATUXENT RIVER CLOUDY    52  46  80 E6        30.20R
ST INIGOES       N/A    N/A N/A N/A MISG        N/A
LEONARDTOWN*   CLOUDY    52  46  82 E5        30.21R

$$

MDZ003>005-301500-
NORTH CENTRAL MARYLAND

CITY           SKY/WX    TMP DP  RH WIND       PRES   REMARKS
FREDERICK*     FOG       48  48 100 N8        30.23R VSB 1
HAGERSTOWN APT CLOUDY    51  45  79 E8        30.18F
WESTMINSTER*   CLOUDY    46  45  93 E5        30.20R FOG

$$

MDZ501>502-301500-
WESTERN MARYLAND

CITY           SKY/WX    TMP DP  RH WIND       PRES   REMARKS
OAKLAND*       CLOUDY    46  45  93 SE14G20   30.11F FOG
CUMBERLAND*    CLOUDY    54  50  87 CALM      30.20S

$$

VAZ025>031-301500-
SHENANDOAH VALLEY

CITY           SKY/WX    TMP DP  RH WIND       PRES   REMARKS
WINCHESTER*    CLOUDY    52  52 100 CALM      30.18R FOG
FRONT ROYAL*   CLOUDY    54  50  87 E7        30.16S
LURAY*         CLOUDY    55  54  94 NE5       30.14F
NEW MARKET*    CLOUDY    53  51  93 NE6       30.14F
STAUNTON*      CLOUDY    58  55  91 NE3       30.15F FOG
WAYNESBORO*    CLOUDY    53  50  90 MISG      30.14F

$$

WVZ021-048>050-054>055-301500-
EASTERN WEST VIRGINIA PANHANDLE

CITY           SKY/WX    TMP DP  RH WIND       PRES   REMARKS
MARTINSBURG    CLOUDY    51  49  92 NE5       30.18S FOG
PETERSBURG*    CLOUDY    55  52  88 CALM      30.15S FOG

$$

VAZ036>039-050-301500-
CENTRAL FOOTHILLS

CITY           SKY/WX    TMP DP  RH WIND       PRES   REMARKS
CHARLOTTESVILL CLOUDY    55  50  83 E7        30.16S
CULPEPER*      CLOUDY    55  51  89 E3        30.19S
ORANGE*        CLOUDY    54  54 100 CALM      30.20R
GORDONSVILLE*  CLOUDY    54  52  94 CALM      30.17S
WARRENTON*     CLOUDY    55  47  77 NE5       30.18S

$$

VAZ055>057-301500-
NORTH AND CENTRAL PIEDMONT

CITY           SKY/WX    TMP DP  RH WIND       PRES   REMARKS
FREDERICKSBRG* CLOUDY    54  53  98 NE7       30.19R
STAFFORD*      CLOUDY    53  48  84 NE7       30.23S

$$

NCZ024-NYZ072-PAZ021-071-VAZ022-071-301500-
OTHER REGIONAL OBSERVATIONS

CITY           SKY/WX    TMP DP  RH WIND       PRES   REMARKS
NEW YORK CITY  CLOUDY    53  35  50 NE3       30.24S
PHILADELPHIA   PTSUNNY   53  40  61 NE6       30.22F
PITTSBURGH     CLOUDY    54  45  71 E8        30.11F
ROANOKE        CLOUDY    56  54  93 SE7       30.15S FOG
RICHMOND       CLOUDY    54  50  86 E6        30.18R
RALEIGH        CLOUDY    60  57  89 SE7       30.13S

$$

ANZ530>537-301500-
MARINE OBSERVATIONS

STATION/POSITION TIME  TEMP    WIND        PRES
                       AIR SEA DIR/SP/G
                 (UTC) (F)     (DEG/KT/KT) (MB)
THOMAS PT LIGHT  1400   50 57   20/  7/  8 1024.2R
BALT KEY BRIDGE  1300   50      40/  6/  8 1022.7R
COVE POINT       1300   49      60/  7/  8 1022.8R
LEWISETTA        1300   52 59   70/  5/  6 1022.1R
SOLOMONS ISLAND  1300   51 60   70/  5/  7   N/A
PINEY POINT      1300           80/  5/  6   N/A

$$





USA.gov is the U.S. government's official web portal to all federal, state and local government web resources and services.